This demonstration page uses our WeatherBlox Daily Observations layout. Learn more.

Left ArrowRight Arrow

36.17497, -115.13722

Hourly Observations for March 22, 2015

Temp ( °F °C ) Dew Point ( °F °C ) Humidity (%) Winds ( mph kmh ) Pressure ( in mb ) Visibility ( mi km ) Precip ( " mm )
12:53 am 00:53 Clear 70 21.1 21 -6.1 16 16 SSW 13 20 29.97 1015 10 16 N/A
1:53 am 01:53 Clear 68 20 22 -5.6 17 17 S 7 11 29.96 1015 10 16 N/A
2:53 am 02:53 Clear 63 17.2 23 -5 22 22 NW 6 9 29.96 1015 10 16 N/A
3:53 am 03:53 Clear 61 16.1 23 -5 23 23 NW 5 7 29.96 1015 10 16 N/A
4:53 am 04:53 Clear 60 15.6 25 -3.9 26 26 NW 6 9 29.97 1015 10 16 N/A
5:53 am 05:53 Clear 59 15 25 -3.9 27 27 N 9 15 29.98 1015 10 16 N/A
6:53 am 06:53 Sunny 60 15.6 22 -5.6 23 23 NNW 7 11 30.01 1016 10 16 N/A
7:53 am 07:53 Sunny 62 16.7 24 -4.4 23 23 N 3 6 30.02 1017 10 16 N/A
8:53 am 08:53 Sunny 65 18.3 26 -3.3 23 23 N 3 6 30.04 1017 10 16 N/A
9:53 am 09:53 Sunny 67 19.4 26 -3.3 21 21 NE 3 6 30.05 1018 10 16 N/A
10:53 am 10:53 Sunny 71 21.7 25 -3.9 18 18 N N/A 30.05 1018 10 16 N/A
11:53 am 11:53 Sunny 73 22.8 24 -4.4 16 16 W 3 6 30.04 1017 10 16 N/A
12:53 pm 12:53 Sunny 75 23.9 24 -4.4 15 15 N N/A 30.02 1017 10 16 N/A
1:53 pm 13:53 Sunny 76 24.4 24 -4.4 14 14 VRB 5 7 29.99 1016 10 16 N/A
2:53 pm 14:53 Sunny 78 25.6 23 -5 13 13 S 10 17 29.98 1015 10 16 N/A
3:53 pm 15:53 Sunny 79 26.1 22 -5.6 12 12 SW 9 15 29.96 1015 10 16 N/A
4:53 pm 16:53 Sunny 78 25.6 22 -5.6 12 12 SW 9 15 29.95 1014 10 16 N/A
5:53 pm 17:53 Sunny 77 25 16 -8.9 10 10 W 10 17 29.95 1014 10 16 N/A
6:53 pm 18:53 Sunny 76 24.4 21 -6.1 13 13 WSW 9 15 29.95 1014 10 16 N/A
7:53 pm 19:53 Clear 74 23.3 14 -10 10 10 S 12 19 29.95 1014 10 16 N/A
8:53 pm 20:53 Clear 74 23.3 17 -8.3 11 11 SW 14 22 29.94 1014 10 16 N/A
9:53 pm 21:53 Clear 73 22.8 20 -6.7 13 13 SW 23 37 29.93 1014 10 16 N/A
10:53 pm 22:53 Clear 70 21.1 23 -5 17 17 SW 12 19 29.94 1014 10 16 N/A
11:53 pm 23:53 Clear 69 20.6 23 -5 17 17 S 10 17 29.96 1014 10 16 N/A

Powered by AerisWeather